Regional Weather Roundup
Issued by NWS

Home | Current Version | Previous Version | Graphics & Text | Print | Product List | Glossary On
Versions: 1 2 3 4 5 6 7 8 9 10 11 12 13 14 15 16 17 18 19 20 21 22 23 24 25 26 27 28 29 30 31 32 33 34 35 36 37 38 39 40 41 42 43 44 45 46 47 48 49 50
000
ASUS43 KDMX 120306
RWRIA

WEATHER ROUNDUP FOR IOWA
NATIONAL WEATHER SERVICE DES MOINES IA
900 PM CST MON DEC 11 2017

NOTE: "FAIR" INDICATES FEW OR NO CLOUDS BELOW 12,000 FEET WITH NO
SIGNIFICANT WEATHER AND/OR OBSTRUCTIONS TO VISIBILITY.

* - THESE STATIONS ARE NOT NWS STATIONS...THUS NOT UNDER NWS
QUALITY CONTROL.  THEY ALSO DO NOT REPORT WEATHER SUCH
AS PRECIPITATION OR FOG.

IAZ001>003-012>014-020>022-031>034-043>046-120400-
   NORTHWEST IOWA

CITY           SKY/WX    TMP DP  RH WIND       PRES   REMARKS
CARROLL *      PTCLDY    23  18  80 N20       30.22R WCI   8
CHEROKEE *     CLEAR     22  16  77 NW15G22   30.28R WCI   9
DENISON *      CLEAR     27  19  74 N18       30.26R WCI  13
LE MARS *      CLEAR     25  18  74 N14G21    30.30R WCI  13
ORANGE CITY *  CLEAR     23  18  80 N16       30.29R WCI  10
SHELDON *      CLEAR     19  14  79 N22G29    30.26R WCI   3
SIOUX CITY     CLEAR     26  19  74 NW16G26   30.30R WCI  14
SPENCER        CLEAR     20  13  74 NW22      30.26R WCI   3
STORM LAKE *   CLEAR     21  16  79 N17G26    30.24R WCI   7
$$

IAZ055>058-069>071-079>083-090>094-120400-
   SOUTHWEST IOWA

CITY           SKY/WX    TMP DP  RH WIND       PRES   REMARKS
ATLANTIC *     CLEAR     28  21  74 N20G25    30.22R WCI  15
AUDUBON *      CLEAR     27  21  80 N12       30.22S WCI  16
CLARINDA *       N/A     32  25  74 N16G25    30.25R WCI  21
COUNCIL BLFS * CLEAR     30  27  86 NW17G26   30.24S WCI  18
CRESTON *      MOCLDY    30  19  64 N25G35    30.20R WCI  16
HARLAN  *      CLEAR     28  21  74 N24G33    30.26S WCI  14
LAMONI         CLOUDY    32  21  64 N17G32    30.16R WCI  21
RED OAK *      PTCLDY    32  25  74 N12G18    30.25R WCI  23
SHENANDOAH *   CLEAR     34  25  69 N14G25    30.26R WCI  24
$$

IAZ047>049-059>061-072>074-084-120400-
   CENTRAL IOWA

CITY           SKY/WX    TMP DP  RH WIND       PRES   REMARKS
AMES           CLOUDY    27  19  72 NW29G37   30.18R WCI  11
ANKENY *       CLOUDY    28  19  69 NW18G28   30.20R WCI  16
BOONE *        CLOUDY    25  18  74 N29G37    30.17R WCI   8
CHARITON *     CLOUDY    32  23  69 NW24G35   30.14R WCI  19
DES MOINES     CLOUDY    29  19  66 NW22G32   30.18R WCI  15
GRINNELL*      CLOUDY    32  25  74 NW28G33   30.10R WCI  18
KNOXVILLE *    CLOUDY    32  21  64 N23G33    30.13R WCI  19
MARSHALLTOWN   CLOUDY    30  23  75 NW24G32   30.12R WCI  16
NEWTON *       CLOUDY    30  21  69 NW26G35   30.13R WCI  16
PELLA *        CLOUDY    33  23  67 N26G38    30.14R WCI  20
PERRY *        CLOUDY    26  17  68 NW23G32   30.21R WCI  12
$$

IAZ004>006-015-016-023>025-035-036-120400-
   NORTH CENTRAL IOWA

CITY           SKY/WX    TMP DP  RH WIND       PRES   REMARKS
ALGONA *         N/A    N/A N/A N/A N25G33    30.20R
CLARION *      CLOUDY    23  18  80 NW25G33   30.17R WCI   7
ESTHERVILLE    CLEAR     16  12  84 N23G32    30.24R WCI  -2
FORT DODGE *   CLOUDY    23  16  74 N12G25    30.20R WCI  12
MASON CITY     CLOUDY    26  16  65 NW22G35   30.14R WCI  12
FOREST CITY *  CLOUDY    27  19  74 N23G31    30.16R WCI  12
WEBSTER CITY * CLOUDY    25  16  68 NW25      30.16S WCI   9
IOWA FALLS *   CLOUDY    29  22  75 NW23G32   30.14R WCI  15
$$

IAZ007>011-017>019-026>030-037>042-050>054-066-120400-
   NORTHEAST IOWA

CITY           SKY/WX    TMP DP  RH WIND       PRES   REMARKS
CEDAR RAPIDS   CLOUDY    34  25  69 N24G35    30.02R WCI  21
CHARLES CITY * PTCLDY    25  18  74 NW23G35   30.10R WCI  10
CLINTON *      CLOUDY    33  28  81 N20       29.97  WCI  21
DECORAH *      MOCLDY    27  16  63 N23G36    30.03R WCI  12
DUBUQUE        CLOUDY    31  23  72 N22G28    29.96R WCI  18
MONTICELLO *   CLOUDY    32  23  69 NW20G32   30.00R WCI  20
OELWEIN *      CLOUDY    28  21  74 N26G36    30.05R WCI  13
WATERLOO       MOCLDY    29  18  63 N29G37    30.08R WCI  14
$$

IAZ064-065-067-068-078-120400-
   EAST CENTRAL IOWA

CITY           SKY/WX    TMP DP  RH WIND       PRES   REMARKS
DAVENPORT      CLOUDY    34  29  82 NW16G25   30.00R WCI  24
IOWA CITY      CLOUDY    37  26  64 N18G31    30.05R WCI  27
MT. PLEASANT * CLOUDY    36  29  76 NW20G33   30.03R WCI  25
MUSCATINE *    CLOUDY    36  27  69 N23G35    30.03R WCI  24
QUAD CITIES    CLOUDY    36  29  75 N14G25    29.97R WCI  27
$$

IAZ062-063-075>077-085>089-095>099-120400-
   SOUTHEAST IOWA

CITY           SKY/WX    TMP DP  RH WIND       PRES   REMARKS
BURLINGTON     CLOUDY    37  31  78 N21G29    30.00R WCI  26
FAIRFIELD *    CLOUDY    36  27  69 NW25G32   30.05R WCI  23
FORT MADISON * CLOUDY    37  32  81 NW22G30   30.02R WCI  27
KEOKUK *       CLOUDY    39  32  75 NW14G26   30.02R WCI  31
OSKALOOSA *    CLOUDY    34  26  74 NW28G35   30.10R WCI  20
OTTUMWA        CLOUDY    36  27  69 NW23G31   30.09R WCI  24
WASHINGTON *   CLOUDY    36  28  75 NW21G35   30.06R WCI  24
$$

ABBREVIATIONS USED IN REMARKS
   TC - TEMPERATURES IN CELSIUS
  WCI - WIND CHILL INDEX
   HX - HEAT INDEX
  VSB - VISIBILITY
$$




USA.gov is the U.S. government's official web portal to all federal, state and local government web resources and services.